| time (UTC) | temp F | wind direction | speed knots | gust knots | rain 1hr in | rain 24hr in | rain mn in | humidity % | barometer mb |
| 20260510205134 | 60 | 260 | 9.6 | 12.2 | 0.00 | 0.00 | 0.00 | 8 | 1032.1 |
| 20260510204134 | 59 | 241 | 7.0 | 11.3 | 0.00 | 0.00 | 0.00 | 8 | 1032.0 |
| 20260510203134 | 59 | 234 | 4.3 | 11.3 | 0.00 | 0.00 | 0.00 | 8 | 1032.0 |
| 20260510202134 | 59 | 239 | 11.3 | 11.3 | 0.00 | 0.00 | 0.00 | 8 | 1031.9 |
| 20260510201134 | 59 | 233 | 3.5 | 8.7 | 0.00 | 0.00 | 0.00 | 8 | 1031.8 |
| 20260510200134 | 59 | 239 | 2.6 | 6.1 | 0.00 | 0.00 | 0.00 | 8 | 1031.9 |
| 20260510195134 | 58 | 252 | 7.0 | 10.4 | 0.00 | 0.00 | 0.00 | 8 | 1031.7 |
| 20260510194134 | 58 | 245 | 7.8 | 10.4 | 0.00 | 0.00 | 0.00 | 8 | 1031.4 |
| 20260510193134 | 58 | 256 | 6.1 | 12.2 | 0.00 | 0.00 | 0.00 | 8 | 1031.3 |
| 20260510192134 | 58 | 258 | 8.7 | 12.2 | 0.00 | 0.00 | 0.00 | 8 | 1031.2 |
| 20260510191134 | 58 | 249 | 7.0 | 8.7 | 0.00 | 0.00 | 0.00 | 8 | 1031.1 |
| 20260510190134 | 59 | 254 | 6.1 | 10.4 | 0.00 | 0.00 | 0.00 | 8 | 1031.1 |
| 20260510185134 | 59 | 235 | 9.6 | 10.4 | 0.00 | 0.00 | 0.00 | 8 | 1031.0 |
| 20260510184134 | 59 | 255 | 7.0 | 7.8 | 0.00 | 0.00 | 0.00 | 8 | 1031.0 |
| 20260510183134 | 59 | 254 | 7.8 | 10.4 | 0.00 | 0.00 | 0.00 | 8 | 1031.0 |
| 20260510182134 | 59 | 197 | 2.6 | 9.6 | 0.00 | 0.00 | 0.00 | 8 | 1031.0 |
| 20260510181134 | 59 | 228 | 2.6 | 11.3 | 0.00 | 0.00 | 0.00 | 8 | 1030.9 |
| 20260510180134 | 59 | 268 | 7.8 | 10.4 | 0.00 | 0.00 | 0.00 | 8 | 1030.8 |
| 20260510175134 | 59 | 231 | 5.2 | 13.0 | 0.00 | 0.00 | 0.00 | 8 | 1030.7 |
| 20260510174134 | 59 | 261 | 4.3 | 14.8 | 0.00 | 0.00 | 0.00 | 8 | 1030.7 |
| 20260510173134 | 59 | 234 | 3.5 | 10.4 | 0.00 | 0.00 | 0.00 | 8 | 1030.8 |
| 20260510172134 | 59 | 253 | 7.8 | 8.7 | 0.00 | 0.00 | 0.00 | 8 | 1030.7 |
| 20260510171134 | 59 | 251 | 3.5 | 10.4 | 0.00 | 0.00 | 0.00 | 8 | 1030.6 |
| 20260510170133 | 59 | 255 | 7.8 | 9.6 | 0.00 | 0.00 | 0.00 | 8 | 1030.6 |
| 20260510165133 | 59 | 241 | 3.5 | 9.6 | 0.00 | 0.00 | 0.00 | 8 | 1030.7 |
| 20260510164133 | 59 | 243 | 3.5 | 7.0 | 0.00 | 0.00 | 0.00 | 8 | 1030.7 |
| 20260510163133 | 59 | 223 | 6.1 | 9.6 | 0.00 | 0.00 | 0.00 | 8 | 1030.8 |
| 20260510162133 | 59 | 251 | 9.6 | 10.4 | 0.00 | 0.00 | 0.00 | 8 | 1030.8 |
| 20260510161133 | 59 | 238 | 0.9 | 7.8 | 0.00 | 0.00 | 0.00 | 8 | 1030.7 |
| 20260510160133 | 59 | 264 | 0.9 | 5.2 | 0.00 | 0.00 | 0.00 | 8 | 1030.7 |
| 20260510155133 | 59 | 251 | 7.0 | 10.4 | 0.00 | 0.00 | 0.00 | 8 | 1030.7 |
| 20260510154133 | 59 | 228 | 6.1 | 11.3 | 0.00 | 0.00 | 0.00 | 8 | 1030.7 |
| 20260510153133 | 59 | 263 | 6.1 | 7.0 | 0.00 | 0.00 | 0.00 | 8 | 1030.8 |
| 20260510152133 | 58 | 235 | 2.6 | 2.6 | 0.00 | 0.00 | 0.00 | 8 | 1030.9 |
| 20260510151133 | 58 | 242 | 3.5 | 7.0 | 0.00 | 0.00 | 0.00 | 8 | 1030.8 |
| 20260510150133 | 59 | 247 | 2.6 | 7.8 | 0.00 | 0.00 | 0.00 | 8 | 1030.9 |
| 20260510145133 | 60 | 251 | 3.5 | 7.8 | 0.00 | 0.00 | 0.00 | 8 | 1030.9 |
| 20260510144133 | 60 | 242 | 1.7 | 8.7 | 0.00 | 0.00 | 0.00 | 8 | 1031.0 |
| 20260510143133 | 60 | 224 | 0.9 | 6.1 | 0.00 | 0.00 | 0.00 | 8 | 1031.0 |
| 20260510142133 | 60 | 229 | 4.3 | 7.0 | 0.00 | 0.00 | 0.00 | 8 | 1031.0 |
| 20260510141133 | 60 | 285 | 3.5 | 6.1 | 0.00 | 0.00 | 0.00 | 8 | 1030.9 |
| 20260510140133 | 60 | 250 | 4.3 | 6.1 | 0.00 | 0.00 | 0.00 | 8 | 1031.0 |
| 20260510135133 | 60 | 247 | 5.2 | 8.7 | 0.00 | 0.00 | 0.00 | 8 | 1031.0 |
| 20260510134133 | 60 | 233 | 3.5 | 8.7 | 0.00 | 0.00 | 0.00 | 8 | 1031.1 |
| 20260510133133 | 60 | 225 | 5.2 | 9.6 | 0.00 | 0.00 | 0.00 | 8 | 1031.1 |
| 20260510132133 | 60 | 234 | 3.5 | 8.7 | 0.00 | 0.00 | 0.00 | 8 | 1031.1 |
| 20260510131133 | 60 | 252 | 8.7 | 9.6 | 0.00 | 0.00 | 0.00 | 8 | 1031.1 |
| 20260510130133 | 61 | 227 | 4.3 | 9.6 | 0.00 | 0.00 | 0.00 | 8 | 1031.1 |
| 20260510125133 | 61 | 235 | 5.2 | 7.8 | 0.00 | 0.00 | 0.00 | 8 | 1031.2 |
| 20260510124133 | 61 | 231 | 5.2 | 9.6 | 0.00 | 0.00 | 0.00 | 8 | 1031.4 |
| 20260510123133 | 61 | 210 | 2.6 | 8.7 | 0.00 | 0.00 | 0.00 | 8 | 1031.5 |
| 20260510122131 | 62 | 231 | 3.5 | 8.7 | 0.00 | 0.00 | 0.00 | 8 | 1031.5 |
| 20260510121130 | 62 | 240 | 2.6 | 10.4 | 0.00 | 0.00 | 0.00 | 8 | 1031.7 |
| 20260510120130 | 62 | 247 | 4.3 | 7.8 | 0.00 | 0.00 | 0.00 | 7 | 1031.6 |
| 20260510115129 | 63 | 214 | 1.7 | 6.1 | 0.00 | 0.00 | 0.00 | 8 | 1031.7 |
| 20260510114129 | 63 | 233 | 3.5 | 4.3 | 0.00 | 0.00 | 0.00 | 7 | 1031.5 |
| 20260510113128 | 63 | 231 | 5.2 | 7.8 | 0.00 | 0.00 | 0.00 | 7 | 1031.5 |
| 20260510112128 | 63 | 234 | 3.5 | 7.0 | 0.00 | 0.00 | 0.00 | 7 | 1031.5 |
| 20260510111128 | 63 | 230 | 2.6 | 5.2 | 0.00 | 0.00 | 0.00 | 7 | 1031.5 |
| 20260510110128 | 63 | 233 | 4.3 | 5.2 | 0.00 | 0.00 | 0.00 | 7 | 1031.5 |
| 20260510105339 | 63 | 221 | 2.6 | 6.1 | 0.00 | 0.00 | 0.00 | 7 | 1031.4 |
| 20260510105128 | 63 | 221 | 2.6 | 6.1 | 0.00 | 0.00 | 0.00 | 7 | 1031.4 |
| 20260510104128 | 63 | 203 | 3.5 | 5.2 | 0.00 | 0.00 | 0.00 | 7 | 1031.3 |
| 20260510103128 | 63 | 229 | 3.5 | 5.2 | 0.00 | 0.00 | 0.00 | 7 | 1031.3 |
| 20260510102128 | 63 | 245 | 2.6 | 5.2 | 0.00 | 0.00 | 0.00 | 7 | 1031.3 |
| 20260510101128 | 63 | 227 | 1.7 | 5.2 | 0.00 | 0.00 | 0.00 | 7 | 1031.2 |
| 20260510100128 | 63 | 0 | 0.0 | 2.6 | 0.00 | 0.00 | 0.00 | 7 | 1031.2 |
| 20260510095128 | 63 | 237 | 0.9 | 4.3 | 0.00 | 0.00 | 0.00 | 7 | 1031.1 |
| 20260510094128 | 63 | 220 | 0.9 | 4.3 | 0.00 | 0.00 | 0.00 | 7 | 1031.1 |
| 20260510093128 | 63 | 198 | 0.9 | 2.6 | 0.00 | 0.00 | 0.00 | 7 | 1031.0 |
| 20260510092128 | 63 | 197 | 1.7 | 3.5 | 0.00 | 0.00 | 0.00 | 7 | 1030.9 |
| 20260510091128 | 63 | 269 | 1.7 | 2.6 | 0.00 | 0.00 | 0.00 | 7 | 1030.8 |
| 20260510090128 | 63 | 225 | 1.7 | 5.2 | 0.00 | 0.00 | 0.00 | 7 | 1030.7 |
| 20260510085128 | 63 | 189 | 0.9 | 3.5 | 0.00 | 0.00 | 0.00 | 7 | 1030.6 |
| 20260510084128 | 63 | 212 | 3.5 | 3.5 | 0.00 | 0.00 | 0.00 | 7 | 1030.5 |
| 20260510083128 | 63 | 215 | 0.9 | 2.6 | 0.00 | 0.00 | 0.00 | 7 | 1030.4 |
| 20260510082128 | 64 | 0 | 0.0 | 2.6 | 0.00 | 0.00 | 0.00 | 7 | 1030.3 |
| 20260510081128 | 64 | 0 | 0.0 | 1.7 | 0.00 | 0.00 | 0.00 | 7 | 1030.3 |
| 20260510080128 | 64 | 201 | 1.7 | 3.5 | 0.00 | 0.00 | 0.00 | 7 | 1030.2 |
| 20260510075128 | 64 | 0 | 0.0 | 3.5 | 0.00 | 0.00 | 0.00 | 7 | 1030.1 |
| 20260510074128 | 64 | 141 | 0.9 | 3.5 | 0.00 | 0.00 | 0.00 | 7 | 1029.9 |
| 20260510073128 | 64 | 195 | 4.3 | 6.1 | 0.00 | 0.00 | 0.00 | 7 | 1029.9 |
| 20260510072128 | 64 | 209 | 2.6 | 7.0 | 0.00 | 0.00 | 0.00 | 7 | 1029.8 |
| 20260510071128 | 65 | 0 | 0.0 | 7.8 | 0.00 | 0.00 | 0.00 | 7 | 1029.6 |
| 20260510070128 | 65 | 175 | 2.6 | 4.3 | 0.00 | 0.00 | 0.00 | 7 | 1029.5 |
| 20260510065128 | 65 | 171 | 1.7 | 3.5 | 0.00 | 0.00 | 0.00 | 7 | 1029.3 |
| 20260510064128 | 65 | 166 | 0.9 | 3.5 | 0.00 | 0.00 | 0.00 | 7 | 1029.3 |
| 20260510063128 | 66 | 164 | 3.5 | 8.7 | 0.00 | 0.00 | 0.00 | 7 | 1029.2 |
| 20260510062128 | 66 | 185 | 3.5 | 7.8 | 0.00 | 0.00 | 0.00 | 7 | 1029.1 |
| 20260510061128 | 66 | 167 | 7.0 | 10.4 | 0.00 | 0.00 | 0.00 | 7 | 1028.9 |
| 20260510060128 | 66 | 175 | 2.6 | 8.7 | 0.00 | 0.00 | 0.00 | 7 | 1028.7 |
| 20260510055128 | 66 | 162 | 2.6 | 9.6 | 0.00 | 0.00 | 0.00 | 7 | 1028.7 |
| 20260510054128 | 67 | 160 | 1.7 | 7.0 | 0.00 | 0.00 | 0.00 | 7 | 1028.5 |
| 20260510053202 | 67 | 158 | 1.7 | 7.8 | 0.00 | 0.00 | 0.00 | 7 | 1028.4 |
| 20260510053128 | 67 | 158 | 1.7 | 7.8 | 0.00 | 0.00 | 0.00 | 7 | 1028.4 |
| 20260510052128 | 67 | 185 | 2.6 | 6.1 | 0.00 | 0.00 | 0.00 | 7 | 1028.3 |
| 20260510051128 | 68 | 175 | 1.7 | 3.5 | 0.00 | 0.00 | 0.00 | 6 | 1028.1 |
| 20260510050128 | 68 | 210 | 1.7 | 2.6 | 0.00 | 0.00 | 0.00 | 6 | 1028.1 |
| 20260510045128 | 68 | 160 | 4.3 | 6.1 | 0.00 | 0.00 | 0.00 | 6 | 1028.2 |
| 20260510044128 | 68 | 201 | 7.8 | 10.4 | 0.00 | 0.00 | 0.00 | 6 | 1028.0 |
| 20260510043128 | 68 | 145 | 5.2 | 5.2 | 0.00 | 0.00 | 0.00 | 6 | 1028.1 |
| 20260510042128 | 68 | 144 | 3.5 | 7.8 | 0.00 | 0.00 | 0.00 | 6 | 1028.1 |
| 20260510041128 | 69 | 218 | 1.7 | 7.8 | 0.00 | 0.00 | 0.00 | 6 | 1028.2 |
| 20260510040128 | 70 | 216 | 2.6 | 8.7 | 0.00 | 0.00 | 0.00 | 6 | 1028.2 |
| 20260510035128 | 69 | 161 | 2.6 | 9.6 | 0.00 | 0.00 | 0.00 | 6 | 1028.2 |
| 20260510034128 | 69 | 87 | 5.2 | 7.8 | 0.00 | 0.00 | 0.00 | 6 | 1028.1 |
| 20260510033128 | 69 | 136 | 1.7 | 7.8 | 0.00 | 0.00 | 0.00 | 6 | 1028.0 |
| 20260510032128 | 69 | 74 | 6.1 | 8.7 | 0.00 | 0.00 | 0.00 | 6 | 1028.0 |
| 20260510031128 | 68 | 118 | 4.3 | 5.2 | 0.00 | 0.00 | 0.00 | 6 | 1028.0 |
| 20260510030128 | 70 | 189 | 0.9 | 4.3 | 0.00 | 0.00 | 0.00 | 6 | 1028.0 |
| 20260510025128 | 70 | 226 | 0.9 | 7.0 | 0.00 | 0.00 | 0.00 | 6 | 1028.0 |
| 20260510024128 | 70 | 150 | 0.9 | 2.6 | 0.00 | 0.00 | 0.00 | 6 | 1028.1 |
| 20260510023128 | 70 | 0 | 0.0 | 3.5 | 0.00 | 0.00 | 0.00 | 6 | 1028.1 |
| 20260510022127 | 70 | 0 | 0.0 | 2.6 | 0.00 | 0.00 | 0.00 | 6 | 1028.2 |
| 20260510021127 | 70 | 193 | 1.7 | 1.7 | 0.00 | 0.00 | 0.00 | 6 | 1028.3 |
| 20260510020127 | 69 | 245 | 1.7 | 4.3 | 0.00 | 0.00 | 0.00 | 6 | 1028.5 |
| 20260510015127 | 69 | 162 | 3.5 | 4.3 | 0.00 | 0.00 | 0.00 | 6 | 1028.6 |
| 20260510014126 | 69 | 122 | 1.7 | 5.2 | 0.00 | 0.00 | 0.00 | 6 | 1028.7 |
| 20260510013126 | 69 | 249 | 1.7 | 4.3 | 0.00 | 0.00 | 0.00 | 6 | 1028.7 |
| 20260510012126 | 68 | 220 | 4.3 | 4.3 | 0.00 | 0.00 | 0.00 | 6 | 1028.9 |
| 20260510011126 | 68 | 197 | 1.7 | 4.3 | 0.00 | 0.00 | 0.00 | 6 | 1029.1 |
| 20260510010126 | 67 | 180 | 1.7 | 3.5 | 0.00 | 0.00 | 0.00 | 6 | 1029.3 |
| 20260510005126 | 67 | 252 | 3.5 | 7.0 | 0.00 | 0.00 | 0.00 | 6 | 1029.3 |
| 20260510004126 | 66 | 235 | 0.9 | 7.8 | 0.00 | 0.00 | 0.00 | 6 | 1029.3 |
| 20260510003126 | 66 | 220 | 2.6 | 4.3 | 0.00 | 0.00 | 0.00 | 6 | 1029.4 |
| 20260510002126 | 65 | 242 | 1.7 | 5.2 | 0.00 | 0.00 | 0.00 | 6 | 1029.4 |
| 20260510001126 | 64 | 237 | 2.6 | 6.1 | 0.00 | 0.00 | 0.00 | 6 | 1029.3 |
| 20260510000126 | 64 | 274 | 5.2 | 6.1 | 0.00 | 0.00 | 0.00 | 6 | 1029.1 |
| 20260509235126 | 63 | 247 | 3.5 | 7.0 | 0.00 | 0.00 | 0.00 | 7 | 1029.0 |
| 20260509234126 | 62 | 241 | 7.0 | 8.7 | 0.00 | 0.00 | 0.00 | 7 | 1029.0 |
| 20260509233126 | 61 | 216 | 7.8 | 8.7 | 0.00 | 0.00 | 0.00 | 7 | 1028.8 |
| 20260509232126 | 61 | 232 | 3.5 | 8.7 | 0.00 | 0.00 | 0.00 | 7 | 1028.9 |
| 20260509231126 | 60 | 253 | 7.8 | 8.7 | 0.00 | 0.00 | 0.00 | 7 | 1028.8 |
| 20260509230126 | 60 | 247 | 3.5 | 8.7 | 0.00 | 0.00 | 0.00 | 7 | 1028.8 |
| 20260509225126 | 59 | 240 | 8.7 | 11.3 | 0.00 | 0.00 | 0.00 | 7 | 1028.7 |
| 20260509224126 | 59 | 245 | 5.2 | 9.6 | 0.00 | 0.00 | 0.00 | 7 | 1028.7 |
| 20260509223126 | 58 | 243 | 9.6 | 12.2 | 0.00 | 0.00 | 0.00 | 7 | 1028.8 |
| 20260509222126 | 58 | 221 | 4.3 | 8.7 | 0.00 | 0.00 | 0.00 | 7 | 1028.7 |
| 20260509221126 | 57 | 242 | 7.0 | 7.0 | 0.00 | 0.00 | 0.00 | 7 | 1028.7 |
| 20260509220126 | 57 | 257 | 7.8 | 8.7 | 0.00 | 0.00 | 0.00 | 7 | 1028.6 |
| 20260509215126 | 56 | 231 | 4.3 | 7.8 | 0.00 | 0.00 | 0.00 | 7 | 1028.5 |
| 20260509214126 | 56 | 246 | 5.2 | 11.3 | 0.00 | 0.00 | 0.00 | 7 | 1028.4 |
| 20260509213126 | 55 | 253 | 4.3 | 7.8 | 0.00 | 0.00 | 0.00 | 7 | 1028.3 |
| 20260509212126 | 55 | 247 | 4.3 | 8.7 | 0.00 | 0.00 | 0.00 | 7 | 1028.2 |
| 20260509211126 | 55 | 254 | 7.8 | 7.8 | 0.00 | 0.00 | 0.00 | 7 | 1028.0 |
| 20260509210126 | 54 | 247 | 7.8 | 8.7 | 0.00 | 0.00 | 0.00 | 8 | 1027.8 |